{"data":{"norad_id":58850,"intl_designator":"2024-018B","name":"2024-018B","alt_names":[],"object_type":"PAYLOAD","status":"ACTIVE","operator":null,"country":"IRAN","launch_date":"2024-01-28","launch_site_code":"SEMLS","launch_vehicle":null,"mission":null,"orbit_class":"UNKNOWN","rcs_meters":null,"size_class":null,"mass_kg":null,"dimensions":null,"purposes":[],"wikipedia_slug":null,"has_3d_model":false,"image_url":null,"decayed_at":null,"tle_current":{"epoch":"2026-09-22T22:07:24.301056Z","epoch_age_seconds":43152,"freshness":"FRESH","line1":"1 58850U 24018B   26265.92180904  .00000813  00000+0  10974-3 0  9990","line2":"2 58850  58.6942 233.0394 0406963 224.1214 132.6680 14.44378200139518","mean_motion":14.443782,"eccentricity":0.0406963,"inclination_deg":58.6942,"raan_deg":233.0394,"arg_perigee_deg":224.1214,"mean_anomaly_deg":132.668,"bstar":0.00010974,"rev_number":13951,"period_min":99.696879944602,"perigee_km":454.22199432454,"apogee_km":1033.9168945751,"semimajor_km":7122.2064444498,"source":"CELESTRAK","updated_at":"2026-09-23T09:00:19.016014Z"}}}